Time,TemperatureF,DewpointF,PressureIn,WindDirection,WindDirectionDegrees,WindSpeedMPH,WindSpeedGustMPH,Humidity,HourlyPrecipIn,Conditions,Clouds,dailyrainin,SoftwareType,DateUTC
2013-02-20 00:03:00,43.5,38.1,29.20,SE,127,2.0,6.0,81,0.00,CLR,CLR,0.00,WeatherDisplay:10.37,2013-02-20 05:03:00,
2013-02-20 00:08:00,43.7,38.6,29.18,SE,124,1.0,6.0,82,0.00,RA,RA,0.02,WeatherDisplay:10.37,2013-02-20 05:08:00,
2013-02-20 00:13:00,43.7,38.6,29.18,SE,130,3.0,6.0,82,0.00,RA,RA,0.02,WeatherDisplay:10.37,2013-02-20 05:13:00,
2013-02-20 00:18:00,43.7,38.6,29.18,SE,129,3.0,6.0,82,0.00,CLR,CLR,0.02,WeatherDisplay:10.37,2013-02-20 05:18:00,
2013-02-20 00:23:00,43.9,38.7,29.18,SE,135,2.0,6.0,82,0.00,CLR,CLR,0.02,WeatherDisplay:10.37,2013-02-20 05:23:00,
2013-02-20 00:28:00,43.9,38.7,29.18,SE,134,3.0,5.0,82,0.00,CLR,CLR,0.02,WeatherDisplay:10.37,2013-02-20 05:28:00,
2013-02-20 00:38:00,44.2,39.4,29.18,SE,138,3.0,8.0,83,0.00,CLR,CLR,0.02,WeatherDisplay:10.37,2013-02-20 05:38:00,
2013-02-20 00:48:00,44.2,39.4,29.18,SSE,168,5.0,6.0,83,0.00,CLR,CLR,0.02,WeatherDisplay:10.37,2013-02-20 05:48:00,
2013-02-20 00:58:00,44.1,39.2,29.15,SSE,154,2.0,5.0,83,0.00,,,0.02,WeatherDisplay:10.37,2013-02-20 05:58:00,
2013-02-20 01:03:00,44.1,39.2,29.15,SE,134,1.0,6.0,83,0.00,,,0.02,WeatherDisplay:10.37,2013-02-20 06:03:00,
2013-02-20 01:08:00,44.2,39.4,29.12,ESE,115,0.0,5.0,83,0.02,RA,RA,0.04,WeatherDisplay:10.37,2013-02-20 06:08:00,
2013-02-20 01:19:00,43.9,39.1,29.12,SE,128,2.0,5.0,83,0.00,,,0.04,WeatherDisplay:10.37,2013-02-20 06:19:00,
2013-02-20 01:29:00,43.7,39.2,29.12,SSE,154,3.0,6.0,84,0.00,,,0.04,WeatherDisplay:10.37,2013-02-20 06:29:00,
2013-02-20 01:39:00,43.7,39.2,29.12,SSE,156,1.0,6.0,84,0.00,,,0.04,WeatherDisplay:10.37,2013-02-20 06:39:00,
2013-02-20 01:49:00,43.7,39.2,29.12,SSE,155,2.0,6.0,84,0.00,,,0.04,WeatherDisplay:10.37,2013-02-20 06:49:00,
2013-02-20 01:59:00,43.5,39.0,29.12,SSE,161,5.0,6.0,84,0.00,,,0.04,WeatherDisplay:10.37,2013-02-20 06:59:00,
2013-02-20 02:04:00,43.5,39.0,29.10,SSE,154,1.0,6.0,84,0.00,,,0.04,WeatherDisplay:10.37,2013-02-20 07:04:00,
2013-02-20 02:09:00,43.5,39.3,29.09,SSE,157,3.0,6.0,85,0.00,CLR,CLR,0.04,WeatherDisplay:10.37,2013-02-20 07:09:00,
2013-02-20 02:19:00,43.3,39.1,29.09,SSE,161,3.0,6.0,85,0.00,CLR,CLR,0.04,WeatherDisplay:10.37,2013-02-20 07:19:00,
2013-02-20 02:29:00,43.2,39.0,29.09,SSE,168,2.0,6.0,85,0.00,CLR,CLR,0.04,WeatherDisplay:10.37,2013-02-20 07:29:00,
2013-02-20 02:39:00,43.0,38.8,29.06,South,174,3.0,5.0,85,0.00,CLR,CLR,0.04,WeatherDisplay:10.37,2013-02-20 07:39:00,
2013-02-20 02:49:00,43.0,38.8,29.06,South,174,3.0,4.0,85,0.00,CLR,CLR,0.04,WeatherDisplay:10.37,2013-02-20 07:49:00,
2013-02-20 02:59:00,42.8,38.6,29.06,SSW,192,0.0,4.0,85,0.00,CLR,CLR,0.04,WeatherDisplay:10.37,2013-02-20 07:59:00,
2013-02-20 03:09:00,43.0,38.8,29.06,SSW,208,5.0,9.0,85,0.00,CLR,CLR,0.04,WeatherDisplay:10.37,2013-02-20 08:09:00,
2013-02-20 03:19:00,42.8,38.9,29.06,SSW,204,5.0,6.0,86,0.00,CLR,CLR,0.04,WeatherDisplay:10.37,2013-02-20 08:19:00,
2013-02-20 03:29:00,42.5,38.6,29.06,WSW,242,0.0,4.0,86,0.00,CLR,CLR,0.04,WeatherDisplay:10.37,2013-02-20 08:29:00,
2013-02-20 03:39:00,41.5,37.9,29.06,SW,215,0.0,6.0,87,0.00,CLR,CLR,0.04,WeatherDisplay:10.37,2013-02-20 08:39:00,
2013-02-20 03:49:00,40.8,37.0,29.06,SW,225,0.0,6.0,86,0.00,CLR,CLR,0.04,WeatherDisplay:10.37,2013-02-20 08:49:00,
2013-02-20 03:59:00,40.5,36.9,29.06,SSW,194,5.0,8.0,87,0.00,CLR,CLR,0.04,WeatherDisplay:10.37,2013-02-20 08:59:00,
2013-02-20 04:04:00,40.1,36.5,29.06,SSW,203,5.0,6.0,87,0.00,CLR,CLR,0.04,WeatherDisplay:10.37,2013-02-20 09:04:00,
2013-02-20 04:09:00,40.0,36.4,29.06,SSW,206,3.0,9.0,87,0.00,CLR,CLR,0.04,WeatherDisplay:10.37,2013-02-20 09:09:00,
2013-02-20 04:19:00,39.7,36.2,29.06,SSW,198,3.0,6.0,87,0.00,CLR,CLR,0.04,WeatherDisplay:10.37,2013-02-20 09:19:00,
2013-02-20 04:29:00,39.5,36.0,29.06,SSW,207,3.0,8.0,87,0.00,CLR,CLR,0.04,WeatherDisplay:10.37,2013-02-20 09:29:00,
2013-02-20 04:39:00,39.2,35.9,29.06,SW,219,3.0,5.0,88,0.00,CLR,CLR,0.04,WeatherDisplay:10.37,2013-02-20 09:39:00,
2013-02-20 04:49:00,39.1,35.9,29.06,SSW,210,5.0,6.0,88,0.00,CLR,CLR,0.04,WeatherDisplay:10.37,2013-02-20 09:49:00,
2013-02-20 04:59:00,38.8,35.9,29.06,West,273,5.0,8.0,89,0.00,CLR,CLR,0.04,WeatherDisplay:10.37,2013-02-20 09:59:00,
2013-02-20 05:04:00,38.8,36.2,29.06,WSW,258,2.0,8.0,90,0.00,CLR,CLR,0.04,WeatherDisplay:10.37,2013-02-20 10:04:00,
2013-02-20 05:09:00,38.8,36.4,29.06,West,267,5.0,8.0,91,0.00,CLR,CLR,0.04,WeatherDisplay:10.37,2013-02-20 10:09:00,
2013-02-20 05:19:00,38.8,36.4,29.06,West,277,6.0,9.0,91,0.00,CLR,CLR,0.04,WeatherDisplay:10.37,2013-02-20 10:19:00,
2013-02-20 05:29:00,38.7,36.3,29.06,West,276,7.0,9.0,91,0.00,CLR,CLR,0.04,WeatherDisplay:10.37,2013-02-20 10:29:00,
2013-02-20 05:39:00,38.4,35.7,29.09,West,274,6.0,12.0,90,0.00,CLR,CLR,0.04,WeatherDisplay:10.37,2013-02-20 10:39:00,
2013-02-20 05:49:00,37.4,34.2,29.09,WNW,297,7.0,11.0,88,0.00,CLR,CLR,0.04,WeatherDisplay:10.37,2013-02-20 10:49:00,
2013-02-20 05:59:00,36.9,33.1,29.09,NW,309,5.0,8.0,86,0.00,CLR,CLR,0.04,WeatherDisplay:10.37,2013-02-20 10:59:00,
2013-02-20 06:04:00,36.7,32.9,29.09,NW,311,6.0,8.0,86,0.00,CLR,CLR,0.04,WeatherDisplay:10.37,2013-02-20 11:04:00,
2013-02-20 06:09:00,36.4,32.3,29.09,WNW,282,3.0,9.0,85,0.00,CLR,CLR,0.04,WeatherDisplay:10.37,2013-02-20 11:09:00,
2013-02-20 06:19:00,34.9,29.3,29.09,NW,306,9.0,13.0,80,0.00,CLR,CLR,0.04,WeatherDisplay:10.37,2013-02-20 11:19:00,
2013-02-20 06:29:00,33.5,25.4,29.12,WNW,302,8.0,13.0,72,0.00,CLR,CLR,0.04,WeatherDisplay:10.37,2013-02-20 11:29:00,
2013-02-20 06:39:00,33.1,23.7,29.12,WNW,294,8.0,13.0,68,0.00,CLR,CLR,0.04,WeatherDisplay:10.37,2013-02-20 11:39:00,
2013-02-20 06:49:00,32.5,21.3,29.12,WNW,294,8.0,14.0,63,0.00,CLR,CLR,0.04,WeatherDisplay:10.37,2013-02-20 11:49:00,
2013-02-20 06:58:00,32.4,21.5,29.12,NW,311,0.0,0.0,64,0.00,CLR,CLR,0.04,WeatherDisplay:10.37,2013-02-20 11:58:00,
2013-02-20 07:03:00,32.4,21.5,29.12,NW,311,0.0,0.0,64,0.00,CLR,CLR,0.04,WeatherDisplay:10.37,2013-02-20 12:03:00,
2013-02-20 07:08:00,32.4,21.5,29.12,NW,311,0.0,0.0,64,0.00,CLR,CLR,0.04,WeatherDisplay:10.37,2013-02-20 12:08:00,
2013-02-20 07:18:00,32.4,21.9,29.12,NW,311,0.0,0.0,65,0.00,CLR,CLR,0.04,WeatherDisplay:10.37,2013-02-20 12:18:00,
2013-02-20 07:23:00,32.2,20.6,29.15,NW,310,0.0,0.0,62,0.00,CLR,CLR,0.04,WeatherDisplay:10.37,2013-02-20 12:23:00,
2013-02-20 07:29:00,32.2,20.6,29.15,NW,310,0.0,0.0,62,0.00,CLR,CLR,0.04,WeatherDisplay:10.37,2013-02-20 12:29:00,
2013-02-20 07:38:00,32.4,20.8,29.15,NW,310,0.0,0.0,62,0.00,CLR,CLR,0.04,WeatherDisplay:10.37,2013-02-20 12:38:00,
2013-02-20 07:48:00,32.1,18.1,29.15,NW,309,0.0,0.0,56,0.00,CLR,CLR,0.04,WeatherDisplay:10.37,2013-02-20 12:48:00,
2013-02-20 07:58:00,31.8,15.7,29.15,WNW,288,0.0,0.0,51,0.00,CLR,CLR,0.04,WeatherDisplay:10.37,2013-02-20 12:58:00,
2013-02-20 08:08:00,31.8,15.3,29.15,West,269,0.0,0.0,50,0.00,CLR,CLR,0.04,WeatherDisplay:10.37,2013-02-20 13:08:00,
2013-02-20 08:18:00,32.0,14.5,29.15,WNW,301,7.0,13.0,48,0.00,CLR,CLR,0.04,WeatherDisplay:10.37,2013-02-20 13:18:00,
2013-02-20 08:28:00,32.3,13.3,29.15,NW,311,8.0,15.0,45,0.00,CLR,CLR,0.04,WeatherDisplay:10.37,2013-02-20 13:28:00,
2013-02-20 08:38:00,32.2,12.7,29.15,WNW,298,8.0,15.0,44,0.00,CLR,CLR,0.04,WeatherDisplay:10.37,2013-02-20 13:38:00,
2013-02-20 08:48:00,32.4,11.8,29.15,WNW,283,7.0,17.0,42,0.00,CLR,CLR,0.04,WeatherDisplay:10.37,2013-02-20 13:48:00,
2013-02-20 08:58:00,32.2,11.6,29.15,West,272,8.0,13.0,42,0.00,CLR,CLR,0.04,WeatherDisplay:10.37,2013-02-20 13:58:00,
2013-02-20 09:03:00,32.2,12.2,29.15,West,273,6.0,13.0,43,0.00,CLR,CLR,0.04,WeatherDisplay:10.37,2013-02-20 14:03:00,
2013-02-20 09:08:00,32.4,12.3,29.15,WNW,294,5.0,12.0,43,0.00,CLR,CLR,0.04,WeatherDisplay:10.37,2013-02-20 14:08:00,
2013-02-20 09:18:00,32.5,11.4,29.15,West,278,9.0,15.0,41,0.00,CLR,CLR,0.04,WeatherDisplay:10.37,2013-02-20 14:18:00,
2013-02-20 09:28:00,32.5,11.4,29.15,West,276,6.0,13.0,41,0.00,CLR,CLR,0.04,WeatherDisplay:10.37,2013-02-20 14:28:00,
2013-02-20 09:38:00,32.8,11.6,29.15,WNW,298,9.0,15.0,41,0.00,CLR,CLR,0.04,WeatherDisplay:10.37,2013-02-20 14:38:00,
2013-02-20 09:48:00,33.1,11.3,29.15,WNW,300,6.0,13.0,40,0.00,CLR,CLR,0.04,WeatherDisplay:10.37,2013-02-20 14:48:00,
2013-02-20 09:58:00,32.9,11.2,29.15,WNW,282,7.0,17.0,40,0.00,CLR,CLR,0.04,WeatherDisplay:10.37,2013-02-20 14:58:00,
2013-02-20 10:03:00,33.1,11.3,29.15,West,280,7.0,16.0,40,0.00,CLR,CLR,0.04,WeatherDisplay:10.37,2013-02-20 15:03:00,
2013-02-20 10:08:00,33.3,11.5,29.15,West,272,7.0,10.0,40,0.00,CLR,CLR,0.04,WeatherDisplay:10.37,2013-02-20 15:08:00,
2013-02-20 10:18:00,33.3,11.0,29.15,WNW,300,9.0,15.0,39,0.00,CLR,CLR,0.04,WeatherDisplay:10.37,2013-02-20 15:18:00,
2013-02-20 10:28:00,33.4,11.7,29.15,NW,316,3.0,13.0,40,0.00,CLR,CLR,0.04,WeatherDisplay:10.37,2013-02-20 15:28:00,
2013-02-20 10:38:00,33.3,10.9,29.15,WNW,295,6.0,15.0,39,0.00,CLR,CLR,0.04,WeatherDisplay:10.37,2013-02-20 15:38:00,
2013-02-20 10:48:00,33.4,11.1,29.15,WNW,296,8.0,13.0,39,0.00,CLR,CLR,0.04,WeatherDisplay:10.37,2013-02-20 15:48:00,
2013-02-20 10:58:00,33.8,11.4,29.15,WNW,283,3.0,9.0,39,0.00,CLR,CLR,0.04,WeatherDisplay:10.37,2013-02-20 15:58:00,
2013-02-20 11:03:00,34.2,11.7,29.15,WNW,282,3.0,14.0,39,0.00,CLR,CLR,0.04,WeatherDisplay:10.37,2013-02-20 16:03:00,
2013-02-20 11:08:00,34.2,11.7,29.15,WNW,299,8.0,13.0,39,0.00,CLR,CLR,0.04,WeatherDisplay:10.37,2013-02-20 16:08:00,
2013-02-20 11:18:00,34.3,11.3,29.15,NW,306,6.0,11.0,38,0.00,CLR,CLR,0.04,WeatherDisplay:10.37,2013-02-20 16:18:00,
2013-02-20 11:28:00,34.9,11.2,29.15,NW,307,6.0,9.0,37,0.00,CLR,CLR,0.04,WeatherDisplay:10.37,2013-02-20 16:28:00,
2013-02-20 11:38:00,34.3,10.7,29.15,NW,304,5.0,11.0,37,0.00,CLR,CLR,0.04,WeatherDisplay:10.37,2013-02-20 16:38:00,
2013-02-20 11:48:00,34.0,10.4,29.15,WNW,294,3.0,10.0,37,0.00,CLR,CLR,0.04,WeatherDisplay:10.37,2013-02-20 16:48:00,
2013-02-20 11:58:00,34.0,11.0,29.15,WNW,301,6.0,13.0,38,0.00,CLR,CLR,0.04,WeatherDisplay:10.37,2013-02-20 16:58:00,
2013-02-20 12:03:00,34.0,10.4,29.15,WNW,293,7.0,12.0,37,0.00,CLR,CLR,0.04,WeatherDisplay:10.37,2013-02-20 17:03:00,
2013-02-20 12:08:00,34.2,10.6,29.15,WNW,294,7.0,11.0,37,0.00,CLR,CLR,0.04,WeatherDisplay:10.37,2013-02-20 17:08:00,
2013-02-20 12:18:00,34.2,10.6,29.15,WNW,297,8.0,13.0,37,0.00,CLR,CLR,0.04,WeatherDisplay:10.37,2013-02-20 17:18:00,
2013-02-20 12:28:00,34.3,10.6,29.15,WNW,299,5.0,10.0,37,0.00,CLR,CLR,0.04,WeatherDisplay:10.37,2013-02-20 17:28:00,
2013-02-20 12:38:00,34.2,10.6,29.15,West,280,7.0,13.0,37,0.00,CLR,CLR,0.04,WeatherDisplay:10.37,2013-02-20 17:38:00,
2013-02-20 12:48:00,34.2,10.6,29.15,West,274,7.0,13.0,37,0.00,CLR,CLR,0.04,WeatherDisplay:10.37,2013-02-20 17:48:00,
2013-02-20 12:58:00,34.1,11.1,29.15,WNW,282,6.0,12.0,38,0.00,CLR,CLR,0.04,WeatherDisplay:10.37,2013-02-20 17:58:00,
2013-02-20 13:03:00,34.0,11.6,29.15,WSW,257,3.0,10.0,39,0.00,CLR,CLR,0.04,WeatherDisplay:10.37,2013-02-20 18:03:00,
2013-02-20 13:08:00,34.3,11.9,29.15,SSW,208,5.0,9.0,39,0.00,CLR,CLR,0.04,WeatherDisplay:10.37,2013-02-20 18:08:00,
2013-02-20 13:18:00,34.9,12.4,29.15,SSW,204,7.0,11.0,39,0.00,CLR,CLR,0.04,WeatherDisplay:10.37,2013-02-20 18:18:00,
2013-02-20 13:28:00,34.9,12.4,29.15,SSW,203,6.0,8.0,39,0.00,CLR,CLR,0.04,WeatherDisplay:10.37,2013-02-20 18:28:00,
2013-02-20 13:38:00,34.7,12.2,29.12,SSW,211,5.0,8.0,39,0.00,CLR,CLR,0.04,WeatherDisplay:10.37,2013-02-20 18:38:00,
2013-02-20 13:48:00,35.0,12.5,29.12,WSW,241,6.0,8.0,39,0.00,CLR,CLR,0.04,WeatherDisplay:10.37,2013-02-20 18:48:00,
2013-02-20 13:58:00,34.8,9.2,29.12,West,276,8.0,10.0,34,0.00,CLR,CLR,0.04,WeatherDisplay:10.37,2013-02-20 18:58:00,
2013-02-20 14:03:00,34.7,9.1,29.12,WNW,301,10.0,13.0,34,0.00,CLR,CLR,0.04,WeatherDisplay:10.37,2013-02-20 19:03:00,
2013-02-20 14:08:00,34.5,9.0,29.12,WNW,292,7.0,10.0,34,0.00,CLR,CLR,0.04,WeatherDisplay:10.37,2013-02-20 19:08:00,
2013-02-20 14:18:00,34.2,8.7,29.12,NW,305,8.0,15.0,34,0.00,CLR,CLR,0.04,WeatherDisplay:10.37,2013-02-20 19:18:00,
2013-02-20 14:28:00,34.2,8.7,29.12,WNW,299,7.0,13.0,34,0.00,CLR,CLR,0.04,WeatherDisplay:10.37,2013-02-20 19:28:00,
2013-02-20 14:38:00,33.6,7.5,29.12,NW,306,7.0,13.0,33,0.00,CLR,CLR,0.04,WeatherDisplay:10.37,2013-02-20 19:38:00,
2013-02-20 14:48:00,32.9,7.6,29.12,NW,305,9.0,17.0,34,0.00,CLR,CLR,0.04,WeatherDisplay:10.37,2013-02-20 19:48:00,
2013-02-20 14:58:00,32.5,7.2,29.12,WNW,300,8.0,15.0,34,0.00,CLR,CLR,0.04,WeatherDisplay:10.37,2013-02-20 19:58:00,
2013-02-20 15:03:00,32.5,7.2,29.12,WNW,292,5.0,13.0,34,0.00,CLR,CLR,0.04,WeatherDisplay:10.37,2013-02-20 20:03:00,
2013-02-20 15:08:00,32.5,7.2,29.15,WNW,294,7.0,13.0,34,0.00,CLR,CLR,0.04,WeatherDisplay:10.37,2013-02-20 20:08:00,
2013-02-20 15:18:00,32.8,7.5,29.15,WNW,286,8.0,13.0,34,0.00,CLR,CLR,0.04,WeatherDisplay:10.37,2013-02-20 20:18:00,
2013-02-20 15:28:00,32.4,7.1,29.15,WNW,289,6.0,12.0,34,0.00,CLR,CLR,0.04,WeatherDisplay:10.37,2013-02-20 20:28:00,
2013-02-20 15:38:00,32.1,6.8,29.15,WNW,287,6.0,10.0,34,0.00,CLR,CLR,0.04,WeatherDisplay:10.37,2013-02-20 20:38:00,
2013-02-20 15:48:00,32.0,7.4,29.15,West,274,7.0,12.0,35,0.00,CLR,CLR,0.04,WeatherDisplay:10.37,2013-02-20 20:48:00,
2013-02-20 15:58:00,31.5,7.0,29.15,WNW,293,6.0,12.0,35,0.00,CLR,CLR,0.04,WeatherDisplay:10.37,2013-02-20 20:58:00,
2013-02-20 16:03:00,31.5,6.9,29.15,NW,305,6.0,12.0,35,0.00,CLR,CLR,0.04,WeatherDisplay:10.37,2013-02-20 21:03:00,
2013-02-20 16:08:00,31.3,6.8,29.15,WNW,294,5.0,8.0,35,0.00,CLR,CLR,0.04,WeatherDisplay:10.37,2013-02-20 21:08:00,
2013-02-20 16:18:00,31.1,6.6,29.15,West,268,6.0,13.0,35,0.00,CLR,CLR,0.04,WeatherDisplay:10.37,2013-02-20 21:18:00,
2013-02-20 16:28:00,30.7,6.3,29.18,West,280,5.0,11.0,35,0.00,CLR,CLR,0.04,WeatherDisplay:10.37,2013-02-20 21:28:00,
2013-02-20 16:33:00,30.6,6.1,29.18,WNW,287,7.0,13.0,35,0.00,CLR,CLR,0.04,WeatherDisplay:10.37,2013-02-20 21:33:00,
2013-02-20 16:38:00,30.6,5.5,29.18,WNW,296,8.0,13.0,34,0.00,CLR,CLR,0.04,WeatherDisplay:10.37,2013-02-20 21:38:00,
2013-02-20 16:48:00,30.2,5.2,29.18,WNW,303,8.0,16.0,34,0.00,CLR,CLR,0.04,WeatherDisplay:10.37,2013-02-20 21:48:00,
2013-02-20 16:58:00,30.0,5.0,29.18,NW,312,8.0,15.0,34,0.00,CLR,CLR,0.04,WeatherDisplay:10.37,2013-02-20 21:58:00,
2013-02-20 17:03:00,30.0,5.0,29.18,WNW,303,9.0,15.0,34,0.00,CLR,CLR,0.04,WeatherDisplay:10.37,2013-02-20 22:03:00,
2013-02-20 17:08:00,30.0,5.0,29.18,NW,311,9.0,13.0,34,0.00,CLR,CLR,0.04,WeatherDisplay:10.37,2013-02-20 22:08:00,
2013-02-20 17:18:00,29.9,4.9,29.18,WNW,298,5.0,12.0,34,0.00,CLR,CLR,0.04,WeatherDisplay:10.37,2013-02-20 22:18:00,
2013-02-20 17:28:00,30.0,5.0,29.18,WNW,300,8.0,17.0,34,0.00,CLR,CLR,0.04,WeatherDisplay:10.37,2013-02-20 22:28:00,
2013-02-20 17:38:00,29.8,4.8,29.20,WNW,303,8.0,15.0,34,0.00,CLR,CLR,0.04,WeatherDisplay:10.37,2013-02-20 22:38:00,
2013-02-20 17:48:00,29.7,4.7,29.20,NW,309,3.0,12.0,34,0.00,CLR,CLR,0.04,WeatherDisplay:10.37,2013-02-20 22:48:00,
2013-02-20 17:58:00,29.7,4.7,29.20,WNW,300,6.0,8.0,34,0.00,CLR,CLR,0.04,WeatherDisplay:10.37,2013-02-20 22:58:00,
2013-02-20 18:03:00,29.7,4.7,29.20,WNW,297,5.0,12.0,34,0.00,CLR,CLR,0.04,WeatherDisplay:10.37,2013-02-20 23:03:00,
2013-02-20 18:08:00,29.7,4.7,29.20,WNW,282,6.0,11.0,34,0.00,CLR,CLR,0.04,WeatherDisplay:10.37,2013-02-20 23:08:00,
2013-02-20 18:18:00,29.7,4.7,29.20,West,272,5.0,12.0,34,0.00,CLR,CLR,0.04,WeatherDisplay:10.37,2013-02-20 23:18:00,
2013-02-20 18:28:00,29.7,4.7,29.20,WNW,300,5.0,9.0,34,0.00,CLR,CLR,0.04,WeatherDisplay:10.37,2013-02-20 23:28:00,
2013-02-20 18:38:00,29.5,4.5,29.20,WNW,294,5.0,9.0,34,0.00,CLR,CLR,0.04,WeatherDisplay:10.37,2013-02-20 23:38:00,
2013-02-20 18:48:00,29.5,4.5,29.20,WNW,295,5.0,12.0,34,0.00,CLR,CLR,0.04,WeatherDisplay:10.37,2013-02-20 23:48:00,
2013-02-20 18:58:00,29.3,4.4,29.24,WNW,287,8.0,12.0,34,0.00,CLR,CLR,0.04,WeatherDisplay:10.37,2013-02-20 23:58:00,
2013-02-20 19:03:00,29.2,4.2,29.24,WNW,289,6.0,11.0,34,0.00,CLR,CLR,0.04,WeatherDisplay:10.37,2013-02-21 00:03:00,
2013-02-20 19:08:00,29.1,4.8,29.24,WNW,288,6.0,9.0,35,0.00,CLR,CLR,0.04,WeatherDisplay:10.37,2013-02-21 00:08:00,
2013-02-20 19:18:00,28.9,4.6,29.24,West,278,6.0,15.0,35,0.00,CLR,CLR,0.04,WeatherDisplay:10.37,2013-02-21 00:18:00,
2013-02-20 19:28:00,28.7,4.4,29.24,WNW,289,6.0,9.0,35,0.00,CLR,CLR,0.04,WeatherDisplay:10.37,2013-02-21 00:28:00,
2013-02-20 19:38:00,28.6,5.0,29.24,WNW,287,3.0,8.0,36,0.00,CLR,CLR,0.04,WeatherDisplay:10.37,2013-02-21 00:38:00,
2013-02-20 19:48:00,28.4,4.8,29.24,NW,304,6.0,13.0,36,0.00,CLR,CLR,0.04,WeatherDisplay:10.37,2013-02-21 00:48:00,
2013-02-20 19:58:00,28.0,4.5,29.24,WNW,294,7.0,15.0,36,0.00,CLR,CLR,0.04,WeatherDisplay:10.37,2013-02-21 00:58:00,
2013-02-20 20:03:00,27.9,4.3,29.24,WNW,291,5.0,11.0,36,0.00,CLR,CLR,0.04,WeatherDisplay:10.37,2013-02-21 01:03:00,
2013-02-20 20:08:00,27.7,4.8,29.24,WNW,284,6.0,15.0,37,0.00,CLR,CLR,0.04,WeatherDisplay:10.37,2013-02-21 01:08:00,
2013-02-20 20:18:00,27.5,4.6,29.24,WNW,286,7.0,12.0,37,0.00,CLR,CLR,0.04,WeatherDisplay:10.37,2013-02-21 01:18:00,
2013-02-20 20:28:00,27.3,4.4,29.24,West,278,9.0,20.0,37,0.00,CLR,CLR,0.04,WeatherDisplay:10.37,2013-02-21 01:28:00,
2013-02-20 20:38:00,27.3,4.4,29.24,West,276,8.0,16.0,37,0.00,CLR,CLR,0.04,WeatherDisplay:10.37,2013-02-21 01:38:00,
2013-02-20 20:48:00,27.3,5.0,29.24,WNW,297,7.0,14.0,38,0.00,CLR,CLR,0.04,WeatherDisplay:10.37,2013-02-21 01:48:00,
2013-02-20 20:58:00,27.3,4.4,29.24,WNW,292,6.0,10.0,37,0.00,CLR,CLR,0.04,WeatherDisplay:10.37,2013-02-21 01:58:00,
2013-02-20 21:08:00,27.1,4.3,29.24,WNW,294,10.0,17.0,37,0.00,CLR,CLR,0.04,WeatherDisplay:10.37,2013-02-21 02:08:00,
2013-02-20 21:18:00,27.1,4.3,29.24,WNW,298,8.0,13.0,37,0.00,CLR,CLR,0.04,WeatherDisplay:10.37,2013-02-21 02:18:00,
2013-02-20 21:28:00,27.1,4.3,29.24,NW,306,9.0,13.0,37,0.00,CLR,CLR,0.04,WeatherDisplay:10.37,2013-02-21 02:28:00,
2013-02-20 21:38:00,27.1,4.3,29.24,WNW,285,6.0,8.0,37,0.00,CLR,CLR,0.04,WeatherDisplay:10.37,2013-02-21 02:38:00,
2013-02-20 21:48:00,27.1,4.3,29.24,WNW,291,7.0,13.0,37,0.00,CLR,CLR,0.04,WeatherDisplay:10.37,2013-02-21 02:48:00,
2013-02-20 21:58:00,27.3,4.4,29.26,WNW,288,9.0,15.0,37,0.00,CLR,CLR,0.04,WeatherDisplay:10.37,2013-02-21 02:58:00,
2013-02-20 22:03:00,27.1,4.3,29.26,West,275,10.0,15.0,37,0.00,CLR,CLR,0.04,WeatherDisplay:10.37,2013-02-21 03:03:00,
2013-02-20 22:08:00,27.1,3.7,29.26,WNW,284,8.0,13.0,36,0.00,CLR,CLR,0.04,WeatherDisplay:10.37,2013-02-21 03:08:00,
2013-02-20 22:13:00,27.1,4.3,29.26,WNW,293,5.0,13.0,37,0.00,CLR,CLR,0.04,WeatherDisplay:10.37,2013-02-21 03:13:00,
2013-02-20 22:23:00,27.0,3.5,29.26,WNW,287,7.0,14.0,36,0.00,CLR,CLR,0.04,WeatherDisplay:10.37,2013-02-21 03:23:00,
2013-02-20 22:30:00,27.0,3.5,29.26,WNW,292,6.0,12.0,36,0.00,CLR,CLR,0.04,WeatherDisplay:10.37,2013-02-21 03:30:00,
2013-02-20 22:38:00,26.8,3.9,29.26,West,281,7.0,12.0,37,0.00,CLR,CLR,0.04,WeatherDisplay:10.37,2013-02-21 03:38:00,
2013-02-20 22:48:00,26.6,3.8,29.26,West,277,5.0,10.0,37,0.00,CLR,CLR,0.04,WeatherDisplay:10.37,2013-02-21 03:48:00,
2013-02-20 22:53:00,26.6,3.8,29.26,WNW,286,7.0,14.0,37,0.00,CLR,CLR,0.04,WeatherDisplay:10.37,2013-02-21 03:53:00,
2013-02-20 23:08:00,26.2,3.5,29.26,West,262,7.0,15.0,37,0.00,CLR,CLR,0.04,WeatherDisplay:10.37,2013-02-21 04:08:00,
2013-02-20 23:19:00,26.2,3.4,29.26,West,260,7.0,11.0,37,0.00,CLR,CLR,0.04,WeatherDisplay:10.37,2013-02-21 04:19:00,
2013-02-20 23:29:00,26.1,3.3,29.26,West,275,8.0,13.0,37,0.00,CLR,CLR,0.04,WeatherDisplay:10.37,2013-02-21 04:29:00,
2013-02-20 23:34:00,26.1,3.3,29.26,West,279,6.0,13.0,37,0.00,CLR,CLR,0.04,WeatherDisplay:10.37,2013-02-21 04:34:00,
2013-02-20 23:41:00,26.1,3.3,29.26,West,266,7.0,13.0,37,0.00,CLR,CLR,0.04,WeatherDisplay:10.37,2013-02-21 04:41:00,
2013-02-20 23:49:00,25.9,3.1,29.26,West,271,7.0,15.0,37,0.00,CLR,CLR,0.04,WeatherDisplay:10.37,2013-02-21 04:49:00,
2013-02-20 23:59:00,25.9,3.7,29.26,West,263,6.0,15.0,38,0.00,CLR,CLR,0.00,WeatherDisplay:10.37,2013-02-21 04:59:00,